Starlink 32747

operational
NORAD ID: 62600 Int'l Des: 2025-008 Owner: SPXS Country: US Constellation: starlink
LEOCIRCULAR

Über Starlink 32747

Beschreibung wird geladen...

Live-Position

3D-Globus wird geladen...

Nächste Überflüge

Höhenverlauf

Altitude vs Time

uPlot chart will show altitude changes over time

Zweizeiliger Elementsatz

1 62600U 25008P 25260.17399466 .00030123 00000-0 11002-2 0 9994
2 62600 42.9996 178.1784 0001654 237.7523 122.3168 15.27565364 39027
Epoch: 17. Sept. 2025 • Age: 17 hours

Aktueller Status

Höhe 495.3 km
Geschwindigkeit 7.62 km/s
Subsatellitenpunkt -43.14°S, 133.41°E
Startdatum 13. Jan. 2025
Alter 0.6 years
Typ internet

Technische Details

Klassifizierung Payload
Masse 730.00 kg
Trockenmasse 700.00 kg
Gesamtmasse 730.00 kg
Länge 0.30 m
Durchmesser 4.10 m
Spannweite 29.00 m
Form Box + pan
Hersteller SPXS
Bus-Typ Starlink V2M
Phasenstatus In Orbit
Besitzer/Staat SPXS/US

Große Konstellationen

Loading constellations...